Wind_Speed
25 25 25 26 26 27 27 27 26 26 27 26 26 26 26 27 27 28 29 29 28 29 29 28 28 29 29 28 28 28 28 28 28 28 27 27 26 26 26 26 26 25 26
25 25 25 25 25 25 25 25 25 24 24 24 23 24 24 24 25 26 26 26 26 26 27 27 27 27 27 27 27 26 27 27 27 26 25 25 25 25 25 24 24 25 25
24 24 25 24 24 24 23 23 23 21 21 21 21 20 21 22 23 23 23 23 23 23 24 24 24 24 25 25 25 25 25 24 24 23 23 23 23 23 23 23 22 22 22
23 23 23 22 22 21 21 21 20 19 19 18 18 18 19 19 20 20 21 20 21 20 21 21 22 22 22 22 23 23 23 22 21 21 20 20 21 21 21 21 20 20 19
21 20 20 20 20 19 18 17 17 17 17 16 16 16 17 17 17 18 18 18 18 18 18 18 18 18 19 19 19 19 19 19 18 18 18 18 18 18 18 18 18 18 17
19 18 18 18 17 17 16 16 16 16 15 15 15 15 15 16 16 16 16 16 16 15 15 15 15 15 15 15 14 14 15 15 15 15 15 15 15 15 15 15 15 15 14
18 17 17 16 15 15 14 14 14 15 14 14 14 14 15 15 15 15 14 14 13 13 13 13 13 12 11 10 10 10 11 12 12 12 12 12 12 12 12 12 12 12 12
16 15 15 14 14 14 13 13 13 14 12 11 12 13 13 13 13 13 13 13 13 12 11 11 10 9 8 7 7 8 8 8 9 10 10 10 10 9 9 9 9 10 10
14 13 13 12 12 12 11 11 11 11 11 10 11 12 12 12 12 12 12 12 11 10 10 9 8 7 7 6 5 5 5 5 5 5 6 6 6 6 6 7 7 7 8
12 12 11 11 11 10 10 10 9 9 10 9 10 9 10 12 12 11 10 10 10 9 9 7 7 6 5 5 4 3 2 2 2 2 3 3 3 3 3 4 5 5 5
11 10 10 9 9 9 8 8 8 8 8 8 9 9 10 11 11 10 9 9 9 9 9 8 7 7 6 5 4 3 2 2 1 1 1 1 1 1 1 2 3 4 4
9 8 7 7 8 8 7 7 8 8 8 7 9 9 10 11 11 11 10 9 9 9 9 8 8 8 8 6 5 4 4 4 3 2 2 2 2 2 2 3 3 3 4
6 6 6 6 7 8 7 7 7 8 8 8 9 9 10 10 10 10 10 10 10 10 9 9 9 9 8 8 8 7 6 5 5 4 4 4 3 4 3 4 4 4 4
5 5 5 6 7 7 7 7 7 8 7 8 8 9 10 9 9 9 9 10 10 10 10 10 10 10 9 9 9 8 7 7 6 6 5 5 5 5 5 4 4 4 5
5 5 5 5 6 7 7 7 7 7 8 8 8 9 9 9 9 9 10 10 10 10 11 11 11 10 10 9 9 9 8 7 6 7 6 6 6 5 6 5 5 6 6
4 4 4 5 6 6 7 8 8 8 8 8 8 9 9 9 10 10 10 11 11 10 11 11 11 10 10 10 9 9 8 8 7 7 7 6 6 6 6 7 7 7 8
4 4 4 5 6 7 7 7 8 9 9 8 9 9 9 9 9 9 10 10 11 11 11 11 10 10 10 10 9 9 9 8 8 7 7 7 7 7 7 8 9 9 10
3 3 3 4 5 6 7 7 7 7 7 8 8 9 8 8 8 8 9 9 9 10 10 10 11 10 10 10 9 9 9 9 8 8 7 7 7 7 8 9 9 10 12
3 3 3 4 5 6 6 7 7 6 6 6 6 7 7 7 8 8 8 8 8 8 9 9 9 9 9 9 9 9 9 9 9 9 9 9 9 9 9 10 11 12 13
3 3 3 3 4 5 5 5 6 5 5 6 6 6 6 6 6 6 6 7 7 8 8 9 9 9 9 9 10 10 10 9 9 9 9 9 10 10 11 12 13 14 16
3 3 3 3 4 4 5 4 4 4 4 5 5 5 5 6 6 6 6 6 7 7 8 8 8 9 9 9 9 10 10 10 10 10 10 10 11 12 13 14 16 17 19
3 3 3 4 4 4 4 4 4 4 4 4 4 4 5 5 5 6 6 7 7 8 8 9 9 10 10 10 10 10 11 11 12 12 12 13 13 14 15 17 18 20 21
4 4 4 5 5 5 4 4 5 5 5 5 5 5 6 6 7 7 8 9 9 9 10 10 11 11 11 11 11 12 12 13 14 14 15 15 16 17 18 20 21 22 24
4 5 5 5 5 5 5 5 6 6 7 7 7 7 8 8 9 10 10 10 11 12 12 12 12 13 13 13 13 14 15 16 17 18 18 19 19 20 21 22 24 25 27
5 5 5 5 6 6 6 7 7 8 8 9 9 9 10 11 11 12 13 13 14 14 14 15 15 16 16 16 16 17 18 18 19 20 21 23 23 24 25 26 27 28 29
6 6 6 7 7 8 8 9 9 10 11 11 12 12 12 13 14 14 15 15 15 16 17 17 18 18 19 19 19 20 20 22 23 23 24 25 26 27 28 29 30 31 32
Wind_Direction
298 299 298 297 297 296 294 294 293 292 292 291 289 288 288 289 289 289 288 287 285 284 284 283 281 279 278 277 276 275 275 275 275 272 272 272 272 273 273 273 271 270 270
301 300 299 298 298 298 297 298 299 297 295 294 294 293 291 292 292 292 291 290 289 286 285 283 281 279 278 276 275 274 274 274 274 273 273 271 271 271 273 273 273 272 272
301 301 301 301 301 301 301 301 303 303 299 297 298 298 297 296 296 296 295 295 292 289 287 284 282 281 279 277 275 273 273 274 272 271 272 271 272 271 271 272 273 273 272
303 303 304 303 304 304 303 303 305 305 303 300 300 302 302 301 299 300 300 298 296 293 290 288 285 283 281 278 275 273 271 270 269 268 269 271 272 271 271 271 271 271 273
306 307 308 307 306 306 305 305 307 308 309 308 307 307 308 307 306 306 304 301 300 297 295 294 290 287 285 282 277 273 269 267 267 267 268 269 270 270 269 267 268 271 273
308 308 310 311 310 307 307 307 308 309 311 313 314 314 314 314 314 312 309 306 304 302 301 301 299 295 290 284 277 272 270 269 268 267 267 268 267 267 265 264 266 267 270
310 309 310 312 311 309 309 311 311 313 312 313 317 320 321 321 319 318 316 315 313 311 307 306 307 307 300 292 283 277 271 270 269 267 268 269 268 265 264 263 265 267 265
310 311 309 311 311 311 313 316 317 319 319 320 322 324 324 324 325 327 326 325 326 323 318 316 313 313 315 308 295 284 278 275 270 267 268 267 265 265 265 266 270 271 271
308 311 312 313 315 318 318 322 324 326 327 328 330 332 333 334 333 332 334 336 334 333 332 330 326 323 324 323 315 303 292 280 272 269 269 264 262 266 267 267 271 274 277
311 314 317 318 322 328 332 334 335 337 337 337 341 344 346 347 346 346 345 344 347 349 351 351 348 345 346 345 344 339 318 284 270 271 276 277 275 269 265 269 275 274 283
319 322 324 324 327 329 335 338 339 343 348 354 357 355 356 356 358 2 2 2 7 12 15 17 15 13 13 15 22 30 36 50 77 66 38 3 333 311 296 295 294 298 294
327 330 338 343 347 346 342 350 353 355 358 360 359 359 2 7 12 18 21 23 25 26 28 29 29 32 40 46 52 62 67 69 69 57 46 38 26 2 340 330 326 330 321
340 349 354 351 356 5 8 7 13 10 8 7 5 4 5 10 20 29 32 32 33 35 41 45 46 48 49 52 57 63 65 65 66 54 45 47 36 19 3 358 353 349 340
349 353 356 356 360 11 20 25 24 20 19 18 16 17 17 21 28 32 35 39 42 46 48 48 49 51 53 56 58 61 65 64 61 57 55 41 30 29 31 18 6 352 341
3 2 9 15 16 19 24 27 24 23 25 26 26 26 30 36 40 43 46 48 48 49 50 49 50 52 54 54 55 54 56 57 56 49 46 41 42 36 25 16 5 356 350
14 17 23 24 26 26 27 30 33 36 39 41 38 38 42 48 51 54 54 52 52 54 54 55 53 52 51 50 49 47 47 46 44 40 37 35 30 22 17 16 11 360 350
19 25 32 36 35 32 33 35 39 44 47 49 47 48 53 55 55 54 56 56 55 54 52 51 49 47 46 46 47 45 40 36 32 29 29 25 21 18 15 11 8 2 355
16 25 35 36 36 36 36 39 41 44 50 53 54 55 56 60 59 54 53 53 51 48 47 47 46 45 43 43 42 40 35 29 25 23 23 21 18 14 9 3 359 355 351
20 20 25 31 38 39 39 39 39 42 51 53 51 50 52 53 53 50 46 45 45 43 41 39 37 36 35 35 32 30 29 28 26 26 23 18 12 6 1 356 352 349 346
15 18 24 30 32 32 33 35 40 43 46 47 48 53 50 43 39 39 38 37 34 31 29 25 23 23 24 24 23 22 21 19 16 12 7 4 1 357 354 349 345 342 340
16 23 21 19 18 20 20 23 29 33 37 37 38 39 36 31 29 26 22 18 15 12 10 8 8 8 7 8 7 5 2 358 355 352 348 345 343 341 340 339 338 337 336
17 12 3 357 358 2 5 7 9 9 6 5 6 9 9 5 2 1 357 354 352 350 348 349 350 349 348 348 348 347 346 344 341 340 337 334 333 332 332 331 331 331 331
359 358 354 347 343 348 349 347 342 339 337 334 331 330 331 331 331 329 331 329 328 329 329 331 332 331 331 331 332 332 332 331 331 330 329 328 327 325 325 326 326 326 327
350 344 339 339 340 339 336 332 329 326 325 324 320 316 314 313 313 313 314 314 312 313 314 315 316 316 317 317 318 319 320 322 323 323 321 320 320 320 320 320 321 322 322
337 332 330 329 329 327 325 324 324 322 318 314 312 310 309 307 307 306 305 305 305 306 306 305 306 308 308 308 309 311 312 313 316 316 315 315 314 315 316 316 317 319 319
329 325 322 320 317 315 314 312 311 310 310 308 306 304 303 302 302 302 300 301 302 302 302 302 303 305 306 306 306 307 308 308 309 309 309 310 311 312 312 314 315 316 317
Height
5793 5790 5787 5785 5782 5780 5778 5775 5773 5771 5769 5767 5766 5764 5762 5761 5760 5758 5757 5755 5754 5753 5752 5751 5750 5749 5749 5749 5748 5748 5749 5749 5750 5750 5750 5751 5752 5752 5753 5753 5754 5755 5756
5786 5784 5781 5779 5776 5774 5771 5769 5767 5764 5762 5761 5759 5757 5755 5754 5753 5751 5749 5748 5746 5745 5744 5743 5742 5741 5741 5741 5741 5741 5741 5741 5742 5743 5743 5744 5744 5745 5746 5746 5747 5748 5749
5781 5779 5776 5773 5770 5768 5765 5763 5761 5758 5757 5755 5753 5751 5750 5748 5747 5745 5743 5741 5739 5738 5737 5736 5735 5734 5733 5733 5733 5734 5734 5734 5734 5735 5736 5736 5737 5738 5739 5740 5740 5741 5742
5777 5774 5771 5768 5765 5763 5760 5758 5756 5754 5752 5750 5748 5746 5745 5743 5741 5739 5737 5735 5734 5732 5731 5729 5728 5727 5727 5726 5726 5727 5727 5727 5728 5729 5729 5730 5731 5732 5732 5733 5735 5735 5736
5772 5769 5767 5764 5761 5759 5756 5754 5752 5750 5748 5746 5744 5742 5741 5739 5736 5734 5732 5730 5729 5727 5726 5724 5723 5721 5720 5720 5720 5720 5721 5721 5722 5723 5724 5725 5725 5726 5727 5728 5729 5730 5731
5768 5765 5763 5760 5757 5755 5753 5751 5749 5747 5745 5743 5741 5739 5737 5735 5732 5730 5728 5726 5724 5723 5721 5720 5718 5717 5716 5715 5715 5715 5716 5716 5717 5718 5719 5719 5720 5721 5722 5723 5724 5725 5726
5764 5761 5759 5757 5754 5752 5750 5748 5746 5745 5743 5741 5739 5737 5734 5732 5729 5727 5725 5723 5721 5720 5718 5717 5715 5714 5712 5711 5711 5711 5712 5712 5713 5714 5715 5715 5716 5717 5718 5719 5720 5721 5722
5760 5758 5756 5754 5752 5750 5748 5746 5744 5742 5740 5738 5736 5734 5732 5730 5727 5725 5723 5721 5719 5717 5715 5714 5713 5711 5710 5710 5709 5709 5709 5709 5710 5711 5712 5712 5713 5714 5714 5715 5717 5718 5718
5757 5755 5753 5752 5750 5748 5746 5744 5742 5740 5739 5737 5735 5733 5731 5728 5726 5724 5722 5720 5718 5716 5714 5712 5711 5710 5709 5708 5708 5708 5707 5708 5708 5709 5709 5710 5711 5711 5712 5713 5714 5715 5716
5755 5753 5751 5750 5748 5746 5744 5743 5741 5739 5737 5736 5734 5732 5730 5728 5725 5723 5721 5719 5717 5715 5713 5712 5710 5709 5708 5708 5707 5707 5707 5707 5708 5708 5708 5709 5709 5710 5710 5711 5712 5713 5714
5753 5751 5750 5748 5747 5745 5744 5742 5740 5739 5737 5736 5734 5732 5730 5728 5726 5723 5721 5720 5718 5716 5714 5712 5711 5709 5708 5708 5707 5707 5707 5707 5708 5708 5709 5709 5709 5709 5709 5710 5710 5711 5712
5751 5750 5749 5747 5746 5744 5743 5742 5740 5739 5737 5736 5734 5733 5731 5729 5726 5724 5722 5721 5719 5717 5715 5714 5712 5711 5710 5709 5709 5708 5708 5709 5709 5709 5709 5709 5709 5709 5709 5709 5709 5710 5710
5751 5749 5748 5747 5746 5744 5743 5742 5740 5739 5738 5736 5735 5733 5731 5729 5728 5726 5724 5723 5721 5719 5717 5716 5715 5713 5712 5712 5711 5711 5710 5710 5710 5710 5710 5710 5710 5710 5709 5709 5709 5709 5709
5751 5750 5748 5747 5746 5745 5743 5742 5741 5740 5739 5737 5736 5734 5732 5731 5729 5728 5726 5725 5723 5722 5720 5719 5718 5717 5716 5715 5714 5713 5713 5712 5712 5712 5712 5711 5711 5710 5710 5709 5709 5709 5709
5751 5750 5749 5748 5747 5746 5745 5743 5742 5741 5740 5738 5737 5736 5734 5733 5732 5730 5729 5727 5726 5725 5724 5722 5721 5720 5719 5718 5717 5716 5715 5715 5714 5714 5713 5712 5712 5711 5711 5710 5709 5709 5708
5751 5750 5749 5749 5748 5747 5746 5744 5743 5742 5741 5740 5739 5738 5736 5735 5734 5733 5731 5730 5729 5728 5727 5725 5724 5723 5722 5721 5720 5719 5718 5717 5716 5715 5715 5714 5713 5712 5711 5710 5709 5708 5707
5752 5751 5750 5750 5749 5748 5747 5746 5745 5744 5742 5742 5741 5740 5739 5738 5737 5736 5735 5734 5732 5731 5730 5729 5727 5726 5725 5723 5722 5721 5720 5719 5718 5717 5716 5715 5714 5713 5711 5710 5709 5708 5706
5753 5752 5751 5751 5750 5749 5748 5747 5746 5745 5745 5744 5743 5742 5741 5740 5739 5738 5737 5736 5735 5734 5733 5732 5730 5729 5727 5726 5725 5723 5722 5721 5719 5718 5717 5715 5714 5713 5712 5710 5709 5707 5705
5753 5753 5752 5752 5751 5750 5750 5749 5748 5747 5746 5745 5745 5744 5743 5742 5741 5740 5739 5738 5737 5736 5735 5734 5733 5731 5730 5728 5727 5725 5724 5722 5721 5719 5718 5716 5715 5713 5711 5710 5708 5706 5703
5754 5754 5753 5753 5752 5751 5751 5750 5749 5748 5748 5747 5746 5746 5745 5744 5743 5743 5742 5740 5739 5738 5737 5736 5734 5733 5731 5730 5728 5727 5725 5724 5722 5720 5718 5717 5715 5713 5711 5709 5706 5704 5701
5754 5754 5754 5753 5753 5752 5751 5751 5750 5749 5749 5748 5748 5747 5746 5745 5744 5744 5743 5741 5740 5739 5738 5736 5735 5733 5732 5730 5729 5727 5725 5724 5722 5720 5718 5716 5714 5712 5709 5707 5704 5701 5698
5755 5755 5754 5754 5753 5753 5752 5751 5751 5750 5750 5749 5748 5748 5747 5746 5745 5744 5743 5742 5741 5740 5738 5737 5735 5733 5732 5730 5728 5727 5725 5723 5721 5719 5717 5714 5712 5710 5707 5704 5701 5698 5694
5756 5755 5755 5754 5753 5753 5752 5751 5751 5750 5750 5749 5748 5748 5747 5746 5745 5744 5743 5741 5740 5739 5737 5736 5734 5733 5731 5729 5727 5725 5723 5721 5719 5717 5714 5712 5709 5706 5704 5701 5697 5694 5690
5756 5755 5755 5754 5753 5753 5752 5751 5750 5750 5749 5748 5747 5746 5745 5744 5743 5742 5741 5740 5738 5737 5735 5734 5732 5731 5729 5727 5725 5722 5720 5718 5716 5713 5711 5708 5705 5702 5699 5696 5692 5689 5685
5756 5755 5754 5753 5753 5752 5751 5750 5749 5748 5747 5746 5745 5744 5743 5742 5741 5740 5738 5737 5736 5734 5733 5731 5729 5727 5725 5723 5721 5719 5716 5714 5711 5709 5706 5703 5700 5697 5694 5690 5687 5683 5678
5755 5754 5753 5753 5752 5751 5750 5749 5748 5747 5746 5744 5743 5742 5741 5739 5738 5736 5735 5734 5732 5730 5729 5727 5725 5723 5721 5719 5717 5714 5712 5709 5706 5703 5700 5697 5694 5691 5688 5684 5680 5676 5671